Radiation Dose at Monitoring Post of Fukushima Daini Nuclear Power Station
Date,Time,MP-1(microSv/h),MP-2(microSv/h),MP-3(microSv/h),MP-4(microSv/h),MP-5(microSv/h),MP-6(microSv/h),MP-7(microSv/h),Wind Direction,Wind Velocity(m/s),Rain
2018/07/27,00:00,0.329,0.206,0.338,0.325,0.293,0.163,0.100,southwest,2.3,No
2018/07/27,00:10,0.328,0.204,0.337,0.323,0.292,0.162,0.100,south-southwest,2.4,No
2018/07/27,00:20,0.329,0.206,0.336,0.323,0.294,0.163,0.099,south-southwest,2.6,No
2018/07/27,00:30,0.328,0.205,0.337,0.324,0.291,0.162,0.100,southwest,2.1,No
2018/07/27,00:40,0.328,0.206,0.335,0.322,0.294,0.162,0.100,southwest,1.9,No
2018/07/27,00:50,0.329,0.204,0.338,0.323,0.292,0.162,0.099,southwest,2.0,No
2018/07/27,01:00,0.326,0.205,0.336,0.322,0.294,0.162,0.098,south-southwest,1.7,No
2018/07/27,01:10,0.330,0.205,0.338,0.325,0.292,0.162,0.099,southwest,1.0,No
2018/07/27,01:20,0.326,0.206,0.335,0.322,0.293,0.163,0.100,south-southwest,1.1,No
2018/07/27,01:30,0.328,0.205,0.338,0.323,0.293,0.164,0.099,south,0.7,No
2018/07/27,01:40,0.328,0.207,0.335,0.324,0.292,0.162,0.100,south-southwest,1.2,No
2018/07/27,01:50,0.327,0.205,0.339,0.324,0.295,0.163,0.099,south-southwest,1.5,No
2018/07/27,02:00,0.327,0.206,0.336,0.324,0.292,0.163,0.099,southwest,1.2,No
2018/07/27,02:10,0.326,0.205,0.338,0.325,0.294,0.163,0.099,southwest,1.2,No
2018/07/27,02:20,0.327,0.205,0.336,0.323,0.291,0.162,0.099,south-southwest,0.8,No
2018/07/27,02:30,0.326,0.205,0.338,0.324,0.293,0.163,0.099,-,CALM,No
2018/07/27,02:40,0.329,0.206,0.336,0.324,0.291,0.162,0.099,-,CALM,No
2018/07/27,02:50,0.327,0.204,0.337,0.323,0.293,0.163,0.099,-,CALM,No
2018/07/27,03:00,0.327,0.206,0.335,0.323,0.291,0.163,0.100,-,CALM,No
2018/07/27,03:10,0.326,0.205,0.336,0.324,0.294,0.163,0.100,-,CALM,No
2018/07/27,03:20,0.329,0.206,0.338,0.325,0.292,0.162,0.099,-,CALM,No
2018/07/27,03:30,0.325,0.206,0.336,0.322,0.294,0.163,0.100,-,CALM,No
2018/07/27,03:40,0.329,0.205,0.337,0.324,0.293,0.162,0.100,-,CALM,No
2018/07/27,03:50,0.327,0.205,0.337,0.323,0.293,0.163,0.100,north-northeast,0.6,No
2018/07/27,04:00,0.330,0.206,0.338,0.324,0.292,0.161,0.100,-,CALM,No
2018/07/27,04:10,0.328,0.206,0.338,0.323,0.292,0.164,0.099,-,CALM,No
2018/07/27,04:20,0.328,0.205,0.339,0.325,0.293,0.162,0.100,-,CALM,No
2018/07/27,04:30,0.328,0.206,0.336,0.322,0.291,0.161,0.100,-,CALM,No
2018/07/27,04:40,0.329,0.205,0.337,0.324,0.295,0.162,0.099,north-northwest,0.9,No
2018/07/27,04:50,0.329,0.206,0.337,0.322,0.291,0.163,0.099,north,0.8,No
2018/07/27,05:00,0.328,0.205,0.336,0.324,0.294,0.163,0.100,north,0.9,No
2018/07/27,05:10,0.327,0.204,0.337,0.324,0.291,0.162,0.099,north,0.7,No
2018/07/27,05:20,0.329,0.204,0.338,0.325,0.295,0.162,0.100,-,CALM,No
2018/07/27,05:30,0.328,0.206,0.338,0.322,0.290,0.162,0.101,-,CALM,No
2018/07/27,05:40,0.326,0.205,0.337,0.324,0.292,0.162,0.100,-,CALM,No
2018/07/27,05:50,0.330,0.203,0.335,0.322,0.292,0.162,0.099,-,CALM,No
2018/07/27,06:00,0.326,0.205,0.337,0.324,0.289,0.163,0.099,-,CALM,No
2018/07/27,06:10,0.330,0.204,0.334,0.321,0.291,0.161,0.099,-,CALM,No
2018/07/27,06:20,0.327,0.202,0.339,0.323,0.294,0.162,0.100,-,CALM,No
2018/07/27,06:30,0.326,0.205,0.336,0.324,0.292,0.162,0.098,north,1.5,No
2018/07/27,06:40,0.329,0.205,0.335,0.321,0.289,0.162,0.099,north,1.1,No
2018/07/27,06:50,0.326,0.204,0.336,0.325,0.295,0.161,0.099,-,CALM,No
2018/07/27,07:00,0.329,0.204,0.333,0.322,0.293,0.162,0.099,north-northwest,0.6,No
2018/07/27,07:10,0.328,0.204,0.336,0.319,0.289,0.163,0.098,north-northeast,0.9,No
2018/07/27,07:20,0.326,0.202,0.337,0.321,0.292,0.161,0.098,northeast,1.3,No
2018/07/27,07:30,0.330,0.203,0.335,0.323,0.293,0.162,0.098,northeast,1.5,No
2018/07/27,07:40,0.326,0.203,0.333,0.323,0.292,0.163,0.098,northeast,1.3,No
2018/07/27,07:50,0.324,0.203,0.334,0.320,0.290,0.161,0.098,northeast,1.3,No
2018/07/27,08:00,0.328,0.205,0.333,0.320,0.294,0.161,0.098,northeast,1.7,No
2018/07/27,08:10,0.330,0.203,0.332,0.319,0.294,0.162,0.099,east-northeast,1.9,No
2018/07/27,08:20,0.326,0.204,0.332,0.321,0.293,0.162,0.099,east-southeast,0.7,No
2018/07/27,08:30,0.324,0.204,0.331,0.320,0.290,0.162,0.099,east,1.4,No
2018/07/27,08:40,0.325,0.204,0.334,0.320,0.290,0.160,0.099,east,1.8,No
2018/07/27,08:50,0.324,0.205,0.339,0.323,0.288,0.163,0.099,east,1.2,No
2018/07/27,09:00,0.325,0.204,0.337,0.322,0.289,0.163,0.099,east,2.1,No
2018/07/27,09:10,0.324,0.205,0.334,0.322,0.290,0.161,0.099,-,CALM,No
2018/07/27,09:20,0.324,0.204,0.333,0.321,0.289,0.162,0.099,east-southeast,0.9,No
2018/07/27,09:30,0.327,0.205,0.334,0.321,0.290,0.162,0.098,east-southeast,0.6,No
2018/07/27,09:40,0.330,0.204,0.339,0.320,0.291,0.163,0.099,east-southeast,0.8,No
2018/07/27,09:50,0.328,0.203,0.338,0.319,0.291,0.162,0.098,east,1.2,No
2018/07/27,10:00,0.327,0.204,0.336,0.320,0.290,0.162,0.099,east-northeast,1.5,No
2018/07/27,10:10,0.325,0.205,0.333,0.318,0.292,0.163,0.099,northeast,1.6,No
2018/07/27,10:20,0.326,0.204,0.333,0.320,0.291,0.163,0.099,east-northeast,2.0,No
2018/07/27,10:30,0.326,0.205,0.333,0.321,0.293,0.162,0.099,northeast,2.3,No
2018/07/27,10:40,0.326,0.205,0.332,0.322,0.293,0.163,0.099,east-northeast,2.8,No
2018/07/27,10:50,0.326,0.204,0.335,0.323,0.293,0.163,0.099,east,1.9,No
2018/07/27,11:00,0.327,0.204,0.335,0.321,0.292,0.163,0.099,east,2.5,No
2018/07/27,11:10,0.326,0.205,0.336,0.322,0.292,0.162,0.098,east-southeast,1.8,No
2018/07/27,11:20,0.325,0.206,0.335,0.323,0.292,0.162,0.099,east-southeast,1.3,No
2018/07/27,11:30,0.326,0.205,0.334,0.322,0.292,0.163,0.100,east,1.7,No
2018/07/27,11:40,0.325,0.205,0.335,0.321,0.290,0.164,0.100,east,2.3,No
2018/07/27,11:50,0.326,0.205,0.334,0.322,0.291,0.163,0.099,east-southeast,1.9,No
2018/07/27,12:00,0.326,0.205,0.335,0.323,0.292,0.163,0.099,east,1.8,No
2018/07/27,12:10,0.325,0.205,0.334,0.321,0.291,0.163,0.099,east,1.4,No
2018/07/27,12:20,0.326,0.205,0.335,0.321,0.291,0.162,0.099,east-northeast,2.0,No
2018/07/27,12:30,0.326,0.205,0.334,0.322,0.292,0.162,0.099,east-northeast,2.2,No
2018/07/27,12:40,0.330,0.204,0.334,0.320,0.291,0.162,0.099,east,1.5,No
2018/07/27,12:50,0.331,0.204,0.335,0.320,0.291,0.163,0.099,east,1.7,No
2018/07/27,13:00,0.330,0.203,0.334,0.322,0.291,0.162,0.098,east-northeast,2.3,No
2018/07/27,13:10,0.327,0.205,0.334,0.321,0.293,0.162,0.099,east,2.6,No
2018/07/27,13:20,0.327,0.205,0.335,0.322,0.292,0.164,0.099,east-northeast,1.3,No
2018/07/27,13:30,0.328,0.206,0.334,0.323,0.293,0.163,0.099,east,2.3,No
2018/07/27,13:40,0.327,0.205,0.337,0.323,0.293,0.163,0.099,east-northeast,1.9,No
2018/07/27,13:50,0.328,0.206,0.335,0.322,0.292,0.163,0.099,east-northeast,1.6,No
2018/07/27,14:00,0.325,0.204,0.337,0.323,0.291,0.164,0.100,east-northeast,3.1,No
2018/07/27,14:10,0.326,0.205,0.336,0.323,0.291,0.163,0.099,east,2.7,No
2018/07/27,14:20,0.325,0.204,0.337,0.321,0.291,0.164,0.099,east-northeast,1.6,No
2018/07/27,14:30,0.326,0.205,0.334,0.321,0.292,0.162,0.098,east,1.0,No
2018/07/27,14:40,0.326,0.204,0.335,0.321,0.291,0.163,0.099,east-southeast,2.7,No
2018/07/27,14:50,0.329,0.205,0.334,0.322,0.291,0.162,0.099,southeast,3.7,No
2018/07/27,15:00,0.331,0.205,0.335,0.321,0.289,0.163,0.100,southeast,3.4,No
2018/07/27,15:10,0.331,0.204,0.333,0.326,0.290,0.164,0.100,southeast,2.8,No
2018/07/27,15:20,0.328,0.205,0.333,0.325,0.292,0.164,0.100,southeast,2.7,No
2018/07/27,15:30,0.328,0.204,0.334,0.323,0.293,0.163,0.098,southeast,2.6,No
2018/07/27,15:40,0.329,0.204,0.333,0.321,0.291,0.162,0.099,south-southeast,2.8,No
2018/07/27,15:50,0.326,0.204,0.337,0.319,0.291,0.163,0.098,southeast,2.0,No
2018/07/27,16:00,0.326,0.205,0.338,0.326,0.289,0.163,0.100,southeast,1.3,No
2018/07/27,16:10,0.325,0.207,0.337,0.324,0.292,0.164,0.099,south,1.4,No
2018/07/27,16:20,0.331,0.207,0.336,0.321,0.294,0.164,0.099,south-southeast,0.9,No
2018/07/27,16:30,0.330,0.205,0.335,0.320,0.294,0.162,0.099,south-southwest,1.1,No
2018/07/27,16:40,0.328,0.205,0.339,0.325,0.291,0.162,0.099,south-southeast,0.7,No
2018/07/27,16:50,0.326,0.206,0.337,0.325,0.290,0.164,0.100,southeast,1.2,No
2018/07/27,17:00,0.331,0.207,0.334,0.323,0.293,0.163,0.099,southeast,1.0,No
2018/07/27,17:10,0.331,0.204,0.334,0.320,0.293,0.162,0.098,southeast,0.6,No
2018/07/27,17:20,0.328,0.204,0.339,0.325,0.291,0.162,0.098,-,CALM,No
2018/07/27,17:30,0.326,0.206,0.336,0.325,0.290,0.162,0.099,south,1.0,No
2018/07/27,17:40,0.330,0.206,0.334,0.321,0.293,0.164,0.099,south-southeast,0.9,No
2018/07/27,17:50,0.331,0.205,0.336,0.323,0.294,0.163,0.098,east-southeast,0.6,No
2018/07/27,18:00,0.327,0.204,0.337,0.326,0.292,0.163,0.099,-,CALM,No
2018/07/27,18:10,0.326,0.206,0.335,0.323,0.290,0.163,0.100,southwest,0.8,No
2018/07/27,18:20,0.330,0.204,0.335,0.322,0.295,0.162,0.099,-,CALM,No
2018/07/27,18:30,0.330,0.205,0.338,0.325,0.294,0.162,0.099,south-southwest,0.6,No
2018/07/27,18:40,0.326,0.207,0.336,0.324,0.290,0.163,0.100,-,CALM,No
2018/07/27,18:50,0.330,0.205,0.334,0.321,0.292,0.163,0.099,-,CALM,No
2018/07/27,19:00,0.329,0.206,0.339,0.323,0.293,0.162,0.098,-,CALM,No
2018/07/27,19:10,0.326,0.205,0.335,0.324,0.292,0.163,0.099,northeast,0.9,No
2018/07/27,19:20,0.330,0.203,0.336,0.322,0.294,0.163,0.099,east-northeast,0.8,No
2018/07/27,19:30,0.329,0.205,0.338,0.325,0.294,0.161,0.099,east,1.4,No
2018/07/27,19:40,0.327,0.205,0.335,0.325,0.290,0.163,0.099,east,1.1,No
2018/07/27,19:50,0.330,0.205,0.336,0.320,0.293,0.162,0.099,east,1.0,No
2018/07/27,20:00,0.327,0.205,0.339,0.325,0.294,0.163,0.100,east-northeast,1.2,No
2018/07/27,20:10,0.326,0.205,0.336,0.323,0.291,0.163,0.100,east-northeast,1.0,No
2018/07/27,20:20,0.329,0.207,0.337,0.322,0.295,0.163,0.099,east-northeast,1.3,No
2018/07/27,20:30,0.327,0.205,0.337,0.326,0.294,0.163,0.100,east-northeast,1.7,No
2018/07/27,20:40,0.327,0.204,0.335,0.323,0.289,0.163,0.099,northeast,1.2,No
2018/07/27,20:50,0.330,0.206,0.339,0.324,0.294,0.162,0.099,east-northeast,1.6,No
2018/07/27,21:00,0.328,0.205,0.336,0.326,0.294,0.163,0.099,northeast,1.6,No
2018/07/27,21:10,0.327,0.205,0.336,0.322,0.290,0.163,0.099,north-northeast,1.1,No
2018/07/27,21:20,0.330,0.206,0.338,0.324,0.295,0.161,0.099,northeast,1.4,No
2018/07/27,21:30,0.326,0.205,0.337,0.325,0.293,0.164,0.100,northeast,1.9,No
2018/07/27,21:40,0.328,0.207,0.335,0.321,0.290,0.163,0.099,north-northeast,1.6,No
2018/07/27,21:50,0.330,0.206,0.340,0.326,0.294,0.163,0.100,north-northeast,2.1,No
2018/07/27,22:00,0.325,0.205,0.335,0.324,0.292,0.163,0.100,north-northeast,1.9,No
2018/07/27,22:10,0.329,0.207,0.337,0.323,0.290,0.163,0.099,north,2.4,No
2018/07/27,22:20,0.329,0.205,0.339,0.326,0.293,0.164,0.100,north,4.2,No
2018/07/27,22:30,0.327,0.206,0.337,0.323,0.293,0.164,0.100,north,3.6,No
2018/07/27,22:40,0.330,0.206,0.339,0.324,0.292,0.162,0.099,north,3.3,No
2018/07/27,22:50,0.329,0.205,0.337,0.325,0.295,0.164,0.100,north,1.8,No
2018/07/27,23:00,0.325,0.207,0.337,0.322,0.291,0.163,0.100,north,3.8,No
2018/07/27,23:10,0.331,0.206,0.339,0.325,0.295,0.163,0.099,north,3.9,No
2018/07/27,23:20,0.328,0.206,0.335,0.324,0.294,0.165,0.099,north,4.4,No
2018/07/27,23:30,0.328,0.206,0.337,0.322,0.290,0.163,0.099,north,5.0,No
2018/07/27,23:40,0.330,0.205,0.338,0.326,0.294,0.162,0.098,north-northwest,5.0,No
2018/07/27,23:50,0.327,0.207,0.334,0.323,0.293,0.165,0.100,north,5.1,No
